• In Uzbekistan
  • List of Countries
  • For 7 days
  • Water Temperature
  • Satellite Maps
  • Weather Map
  • Weather Widgets
  • user-avatar
    Login

    Hourly Weather Mingachevir

    Today, 11 December, Sunday

    Time Temperature Precipitation Wind Pressure Humidity
    00:00 +4°C° 0 mm 4 mps 750 mmHg 58%
    01:00 +4°C° 0 mm 4 mps 750 mmHg 59%
    02:00 +4°C° 0 mm 4 mps 750 mmHg 60%
    03:00 +4°C° 0 mm 4 mps 750 mmHg 60%
    04:00 +4°C° 0 mm 4 mps 750 mmHg 60%
    05:00 +3°C° 0 mm 4 mps 750 mmHg 60%
    06:00 +3°C° 0 mm 4 mps 750 mmHg 60%
    07:00 +4°C° 0 mm 4 mps 750 mmHg 57%
    08:00 +5°C° 0 mm 4 mps 751 mmHg 54%
    09:00 +8°C° 0 mm 3 mps 751 mmHg 51%
    10:00 +8°C° 0 mm 4 mps 750 mmHg 49%
    11:00 +9°C° 0 mm 5 mps 750 mmHg 47%
    12:00 +10°C° 0 mm 5 mps 749 mmHg 44%
    13:00 +9°C° 0 mm 5 mps 749 mmHg 47%
    14:00 +9°C° 0 mm 5 mps 749 mmHg 49%
    15:00 +9°C° 0 mm 5 mps 748 mmHg 51%
    16:00 +8°C° 0 mm 5 mps 749 mmHg 53%
    17:00 +7°C° 0 mm 5 mps 749 mmHg 56%
    18:00 +6°C° 0 mm 5 mps 750 mmHg 58%
    19:00 +6°C° 0 mm 5 mps 750 mmHg 57%
    20:00 +6°C° 0 mm 5 mps 751 mmHg 55%
    21:00 +5°C° 0 mm 5 mps 751 mmHg 53%
    22:00 +5°C° 0 mm 5 mps 752 mmHg 54%
    23:00 +5°C° 0 mm 5 mps 752 mmHg 55%

    Tomorrow, 12 December, Monday

    Time Temperature Precipitation Wind Pressure Humidity
    00:00 +5°C° 0 mm 4 mps 753 mmHg 55%
    01:00 +4°C° 0 mm 4 mps 753 mmHg 56%
    02:00 +4°C° 0 mm 3 mps 753 mmHg 57%
    03:00 +5°C° 0 mm 2 mps 754 mmHg 58%
    04:00 +5°C° 0 mm 2 mps 754 mmHg 59%
    05:00 +4°C° 0 mm 2 mps 754 mmHg 60%
    06:00 +4°C° 0 mm 2 mps 755 mmHg 62%
    07:00 +6°C° 0 mm 1 mps 755 mmHg 57%
    08:00 +8°C° 0 mm 1 mps 755 mmHg 53%
    09:00 +9°C° 0 mm 1 mps 755 mmHg 49%
    10:00 +10°C° 0 mm 1 mps 754 mmHg 46%
    11:00 +11°C° 0 mm 1 mps 753 mmHg 44%
    12:00 +12°C° 0 mm 1 mps 753 mmHg 41%
    13:00 +12°C° 0 mm 1 mps 752 mmHg 42%
    14:00 +12°C° 0 mm 1 mps 752 mmHg 43%
    15:00 +12°C° 0 mm 1 mps 751 mmHg 44%
    16:00 +10°C° 0 mm 2 mps 751 mmHg 49%
    17:00 +8°C° 0 mm 2 mps 751 mmHg 53%
    18:00 +7°C° 0 mm 2 mps 751 mmHg 57%
    19:00 +7°C° 0 mm 2 mps 750 mmHg 58%
    20:00 +7°C° 0 mm 3 mps 750 mmHg 58%
    21:00 +7°C° 0 mm 3 mps 750 mmHg 59%
    22:00 +7°C° 0 mm 3 mps 749 mmHg 58%
    23:00 +7°C° 0 mm 3 mps 749 mmHg 58%

    Day after tomorrow, 13 December, Tuesday

    Time Temperature Precipitation Wind Pressure Humidity
    00:00 +7°C° 0 mm 3 mps 749 mmHg 57%
    01:00 +6°C° 0 mm 4 mps 748 mmHg 56%
    02:00 +6°C° 0 mm 4 mps 748 mmHg 56%
    03:00 +7°C° 0 mm 4 mps 748 mmHg 56%
    04:00 +7°C° 0 mm 4 mps 748 mmHg 58%
    05:00 +6°C° 0 mm 4 mps 747 mmHg 59%
    06:00 +6°C° 0 mm 4 mps 747 mmHg 61%
    07:00 +7°C° 0 mm 4 mps 747 mmHg 58%
    08:00 +8°C° 0 mm 4 mps 748 mmHg 55%
    09:00 +10°C° 0 mm 3 mps 748 mmHg 53%
    10:00 +11°C° 0 mm 4 mps 747 mmHg 48%
    11:00 +13°C° 0 mm 4 mps 747 mmHg 44%
    12:00 +14°C° 0 mm 4 mps 746 mmHg 40%
    13:00 +14°C° 0 mm 3 mps 746 mmHg 41%
    14:00 +14°C° 0 mm 3 mps 746 mmHg 42%
    15:00 +14°C° 0 mm 2 mps 746 mmHg 43%
    16:00 +13°C° 0 mm 2 mps 746 mmHg 47%
    17:00 +11°C° 0 mm 1 mps 746 mmHg 51%
    18:00 +10°C° 0 mm 1 mps 747 mmHg 55%
    19:00 +9°C° 0 mm 1 mps 747 mmHg 56%
    20:00 +9°C° 0 mm 1 mps 747 mmHg 58%
    21:00 +9°C° 0 mm 1 mps 747 mmHg 59%
    22:00 +8°C° 0 mm 1 mps 747 mmHg 62%
    23:00 +8°C° 0 mm 1 mps 747 mmHg 66%

    14 December, Wednesday

    Time Temperature Precipitation Wind Pressure Humidity
    00:00 +7°C° 0 mm 2 mps 748 mmHg 69%
    01:00 +6°C° 0.1 mm 2 mps 748 mmHg 75%
    02:00 +7°C° 0.1 mm 1 mps 748 mmHg 80%
    03:00 +7°C° 0.1 mm 1 mps 749 mmHg 86%
    04:00 +7°C° 1.4 mm 1 mps 749 mmHg 87%
    05:00 +6°C° 1.4 mm 2 mps 750 mmHg 89%
    06:00 +6°C° 1.4 mm 2 mps 750 mmHg 90%
    07:00 +5°C° 1.7 mm 2 mps 751 mmHg 89%
    08:00 +5°C° 1.7 mm 2 mps 751 mmHg 88%
    09:00 +5°C° 1.7 mm 2 mps 751 mmHg 88%
    10:00 +5°C° 1.4 mm 2 mps 752 mmHg 87%
    11:00 +5°C° 1.4 mm 2 mps 752 mmHg 87%
    12:00 +4°C° 1.4 mm 3 mps 752 mmHg 87%
    13:00 +4°C° 1.3 mm 2 mps 752 mmHg 87%
    14:00 +4°C° 1.3 mm 2 mps 752 mmHg 87%
    15:00 +4°C° 1.3 mm 2 mps 753 mmHg 87%
    16:00 +3°C° 1 mm 2 mps 754 mmHg 88%
    17:00 +3°C° 1 mm 2 mps 754 mmHg 88%
    18:00 +3°C° 1 mm 2 mps 755 mmHg 89%
    19:00 +2°C° 0.7 mm 2 mps 756 mmHg 89%
    20:00 +2°C° 0.7 mm 2 mps 756 mmHg 89%
    21:00 +2°C° 0.7 mm 2 mps 756 mmHg 89%
    22:00 +1°C° 0.4 mm 2 mps 757 mmHg 89%
    23:00 +2°C° 0.4 mm 1 mps 757 mmHg 88%

    15 December, Thursday

    Time Temperature Precipitation Wind Pressure Humidity
    00:00 +2°C° 0.4 mm 1 mps 757 mmHg 88%
    01:00 +2°C° 0.2 mm 1 mps 757 mmHg 89%
    02:00 +1°C° 0.2 mm 1 mps 757 mmHg 89%
    03:00 +1°C° 0.2 mm 1 mps 757 mmHg 90%
    04:00 +1°C° 0.1 mm 1 mps 757 mmHg 90%
    05:00 +1°C° 0.1 mm 1 mps 758 mmHg 90%
    06:00 +1°C° 0.1 mm 1 mps 758 mmHg 91%
    07:00 +1°C° 0.1 mm 1 mps 758 mmHg 91%
    08:00 +1°C° 0.1 mm 1 mps 758 mmHg 90%
    09:00 +2°C° 0.1 mm 1 mps 759 mmHg 90%
    10:00 +2°C° 0.1 mm 1 mps 758 mmHg 89%
    11:00 +2°C° 0.1 mm 1 mps 758 mmHg 87%
    12:00 +3°C° 0.1 mm 1 mps 758 mmHg 86%
    13:00 +3°C° 0 mm 1 mps 757 mmHg 85%
    14:00 +3°C° 0 mm 1 mps 757 mmHg 85%
    15:00 +3°C° 0 mm 1 mps 757 mmHg 85%
    16:00 +1°C° 0 mm 1 mps 758 mmHg 88%
    17:00 0°C° 0 mm 1 mps 758 mmHg 91%
    18:00 -1°C° 0 mm 1 mps 759 mmHg 94%
    19:00 -2°C° 0 mm 1 mps 759 mmHg 94%
    20:00 -3°C° 0 mm 0 mps 759 mmHg 95%
    21:00 -4°C° 0 mm 0 mps 759 mmHg 95%
    22:00 -4°C° 0 mm 0 mps 759 mmHg 95%
    23:00 -4°C° 0 mm 0 mps 759 mmHg 95%

    16 December, Friday

    Time Temperature Precipitation Wind Pressure Humidity
    00:00 -4°C° 0 mm 0 mps 759 mmHg 95%
    01:00 -4°C° 0 mm 0 mps 759 mmHg 95%
    02:00 -4°C° 0 mm 0 mps 759 mmHg 95%
    03:00 -5°C° 0 mm 0 mps 759 mmHg 95%
    04:00 -5°C° 0 mm 0 mps 759 mmHg 95%
    05:00 -5°C° 0 mm 0 mps 759 mmHg 95%
    06:00 -5°C° 0 mm 0 mps 759 mmHg 95%
    07:00 -3°C° 0 mm 0 mps 759 mmHg 92%
    08:00 -2°C° 0 mm 0 mps 759 mmHg 89%
    09:00 0°C° 0 mm 0 mps 759 mmHg 85%
    10:00 +2°C° 0 mm 1 mps 759 mmHg 82%
    11:00 +2°C° 0 mm 1 mps 758 mmHg 79%
    12:00 +3°C° 0 mm 1 mps 758 mmHg 75%
    13:00 +3°C° 0 mm 1 mps 757 mmHg 75%
    14:00 +3°C° 0 mm 1 mps 757 mmHg 75%
    15:00 +3°C° 0 mm 1 mps 757 mmHg 75%
    16:00 +2°C° 0 mm 1 mps 758 mmHg 77%
    17:00 0°C° 0 mm 1 mps 758 mmHg 80%
    18:00 -2°C° 0 mm 1 mps 758 mmHg 82%
    19:00 -2°C° 0 mm 1 mps 759 mmHg 81%
    20:00 -1°C° 0 mm 1 mps 759 mmHg 79%
    21:00 -1°C° 0 mm 1 mps 759 mmHg 78%
    22:00 -3°C° 0 mm 2 mps 759 mmHg 76%
    23:00 -3°C° 0 mm 2 mps 759 mmHg 75%
    Show more